#timestamp,LO_Frequency,Hit,StdDev 
1586790015.2,286046998.1,N
1586790035.0,286046999.3,N
1586790035.9,286046999.3,N
1586790055.8,286047000.9,N
1586790075.6,286046998.1,N
1586790095.4,286046998.2,N
1586790115.3,286046999.8,N
1586790135.1,286047001.5,N
1586790155.9,286046998.6,N
1586790175.7,286047002.7,N
1586790195.5,286047000.3,N
1586790215.4,286047001.3,N
1586790235.2,286047001.7,N
1586790255.0,286047004.3,N
1586790255.9,286047004.3,N
1586790275.8,286047003.3,N
1586790295.6,286047004.1,N
1586790315.5,286047005.5,N
1586790335.3,286047007.4,Y
1586790355.1,286047003.1,P
1586790375.9,286047005.5,P
1586790395.7,286047007.3,P
1586790415.6,286047009.2,Y
1586790435.4,286047001.6,P
1586790455.2,286047004.0,P
1586790475.1,286047000.4,N
1586790476.0,286047000.4,N
1586790495.8,286047000.5,N
1586790515.6,286047000.9,N
1586790535.5,286046998.1,N
1586790555.3,286046998.5,N
1586790575.2,286046999.2,N
1586790595.9,286046999.2,N
1586790615.7,286046998.7,N
1586790635.6,286046999.5,N
1586790655.4,286047001.2,N
1586790675.3,286047004.3,N
1586790695.1,286047000.9,N
1586790696.0,286047000.9,N
1586790715.8,286047000.3,N
1586790735.7,286047001.2,N
1586790755.5,286046999.8,N
1586790775.3,286047001.0,N
1586790795.2,286046998.8,N
1586790815.0,286046998.2,N
1586790815.9,286046998.2,N
1586790835.8,286047001.2,N
1586790855.6,286047000.2,N
1586790875.4,286047002.4,N
1586790895.3,286047003.0,N
1586790915.1,286047005.5,Y
1586790935.9,286047001.4,P
1586790955.7,286047002.7,P
1586790975.5,286047000.5,N
1586790995.4,286047000.1,N
1586791015.2,286047000.4,N
1586791035.0,286046998.2,N
1586791036.0,286046998.2,N
1586791055.8,286047001.1,N
1586791075.6,286047001.0,N
1586791095.5,286046999.7,N
1586791115.3,286047003.9,Y
1586791135.1,286047001.3,P
1586791155.9,286047003.2,P
1586791175.7,286047004.1,P
1586791195.6,286047004.0,N
1586791215.4,286047003.2,N
1586791235.2,286047003.7,N
1586791255.1,286047004.4,Y
1586791256.0,286047004.4,P
1586791275.8,286047001.1,N
1586791295.7,286047000.6,N
1586791315.5,286047002.6,N
1586791335.3,286047002.7,N
1586791355.2,286047002.6,N
1586791375.9,286047001.1,N
1586791395.7,286046998.7,N
1586791415.6,286047000.2,N
1586791435.4,286047001.0,N
1586791455.3,286047000.7,N
1586791475.1,286046999.8,N
1586791495.8,286047000.6,N
1586791515.7,286047000.6,N
1586791535.5,286047001.1,N
1586791555.4,286046998.1,N
1586791575.2,286047002.8,N
1586791595.0,286046998.8,N
1586791595.9,286046998.8,N
1586791615.8,286046999.4,N
1586791635.6,286046998.3,N
1586791655.4,286046997.2,N
1586791675.3,286046998.0,N
1586791695.1,286046997.7,N
1586791715.9,286046996.6,N
1586791735.7,286047000.8,N
1586791755.5,286047000.3,N
1586791775.4,286046998.3,N
1586791795.2,286046999.7,N
1586791815.0,286047002.5,N
1586791816.0,286047002.5,N
1586791835.8,286047000.7,N
1586791855.6,286046998.3,N
1586791875.5,286046998.3,N
1586791895.3,286046998.9,N
1586791915.1,286046999.8,N
1586791935.9,286047002.4,N
1586791955.7,286047002.8,N
1586791975.6,286046998.2,N
1586791995.4,286047002.5,N
1586792015.2,286047003.0,N
1586792035.1,286047003.1,N
1586792036.0,286047003.1,N
1586792055.8,286047005.7,N
1586792075.7,286047003.0,N
1586792095.5,286047004.3,N
1586792115.3,286047002.5,N
1586792135.2,286046999.7,N
1586792155.0,286047002.5,N
1586792155.9,286047002.5,N
1586792175.8,286047003.9,N
1586792195.6,286047002.3,N
1586792215.4,286047001.9,N
1586792235.3,286047003.8,N
1586792255.1,286047004.1,N
1586792275.9,286047001.6,N
1586792295.7,286047001.7,N
1586792315.5,286047003.1,N
1586792335.4,286047003.2,N
1586792355.2,286047003.0,N
1586792375.0,286047002.5,N
1586792376.0,286047002.5,N
1586792395.8,286047003.7,N
1586792415.6,286047006.0,Y
1586792435.5,286047005.0,P
1586792455.3,286047001.1,N
1586792475.1,286047002.0,N
1586792495.9,286047001.6,N
1586792515.7,286047004.0,N
1586792535.6,286047005.8,Y
1586792555.4,286047001.9,P
1586792575.3,286047000.4,N
1586792595.1,286047000.5,N
1586792596.0,286047000.5,N
1586792615.9,286046999.7,N
1586792635.7,286047002.7,N
1586792655.6,286047000.4,N
1586792675.4,286047002.1,N
1586792695.2,286047001.0,N
1586792715.1,286046998.4,N
1586792716.0,286046998.4,N
1586792735.8,286046998.3,N
1586792755.7,286047000.2,N
1586792775.5,286046998.5,N
1586792795.3,286047000.7,N
1586792815.2,286046998.4,N
1586792835.0,286047000.8,N
1586792835.9,286047000.8,N
1586792855.8,286047000.5,N
1586792875.6,286047002.3,N
1586792895.4,286047000.6,N
1586792915.3,286047000.3,N
1586792935.1,286046998.2,N
1586792955.8,286046998.4,N
1586792975.7,286047000.6,N
1586792995.5,286046999.5,N
1586793015.4,286046997.0,N
1586793035.2,286046996.6,N
1586793055.0,286046999.5,N
1586793055.9,286046999.5,N
1586793075.8,286046999.4,N
1586793095.6,286047001.2,N
1586793115.5,286047001.1,N
1586793135.3,286047000.7,N
1586793155.1,286046998.4,N
1586793175.9,286047000.5,N
1586793195.7,286047000.4,N
1586793215.6,286047002.8,N
1586793235.4,286047000.1,N
1586793255.2,286047000.8,N
1586793275.1,286047001.1,N
1586793276.0,286047001.1,N
1586793295.8,286047000.4,N
1586793315.6,286047000.6,N
1586793335.5,286046999.0,N
1586793355.3,286047004.2,Y
1586793375.2,286047003.9,P
1586793395.9,286047002.4,N
1586793415.7,286047002.1,N
1586793435.6,286047003.1,N
1586793455.4,286047002.0,N
1586793475.3,286047002.1,N
1586793495.1,286046998.8,N
1586793496.0,286046998.8,N
1586793515.8,286046996.7,N
1586793535.7,286046996.7,N
1586793555.5,286046998.8,N
1586793575.3,286046999.9,N
1586793595.2,286047001.2,N
